Location: Unspecified
(40.7945°N, 0.0000°E)
Time: 17:56:23
(UTC+00:00)

UKube-1 - Visible Passes

Search period start: 19 October 2019 00:00
Search period end: 29 October 2019 00:00
Orbit: 613 x 619 km, 98.4° (Epoch: 19 October)

Date Brightness Start Highest point End Pass type
(mag) Time Alt. Az. Time Alt. Az. Time Alt. Az.
19 Oct ? 03:25:26 10° ESE 03:28:44 22° ENE 03:32:03 10° NNE visible
19 Oct ? 05:00:37 10° SSW 05:04:30 33° W 05:08:25 10° NNW visible
19 Oct ? 18:23:43 10° NNW 18:26:48 20° WNW 18:29:52 10° WSW visible
20 Oct ? 03:40:55 10° SE 03:44:43 31° ENE 03:48:32 10° N visible
20 Oct ? 05:17:18 10° SSW 05:20:42 22° W 05:24:06 10° NW visible
20 Oct ? 18:40:35 10° NNW 18:42:44 14° WNW 18:44:53 10° W visible
21 Oct ? 03:56:37 10° SE 04:00:44 46° ENE 04:04:52 10° N visible
21 Oct ? 05:34:24 10° SW 05:36:55 15° W 05:39:28 10° WNW visible
22 Oct ? 04:12:30 10° SSE 04:16:47 70° ENE 04:21:05 10° N visible
22 Oct ? 17:35:11 10° N 17:39:26 63° WNW 17:43:40 10° SSW visible
23 Oct ? 02:56:54 10° ENE 02:57:33 10° ENE 02:58:12 10° NE visible
23 Oct ? 04:28:34 10° S 04:32:52 78° WSW 04:37:12 10° NNW visible
23 Oct ? 17:51:25 10° N 17:55:29 42° WNW 17:59:31 10° SW visible
24 Oct ? 03:11:01 10° E 03:13:27 15° ENE 03:15:54 10° NNE visible
24 Oct ? 04:44:48 10° S 04:49:00 51° W 04:53:13 10° NNW visible
24 Oct ? 18:07:48 10° N 18:11:29 28° WNW 18:15:10 10° SW visible
25 Oct ? 03:26:09 10° ESE 03:29:24 21° ENE 03:32:40 10° NNE visible
25 Oct ? 05:01:14 10° SSW 05:05:09 34° W 05:09:05 10° NNW visible
25 Oct ? 18:24:20 10° NNW 18:27:27 20° WNW 18:30:35 10° WSW visible
26 Oct ? 03:41:36 10° SE 03:45:22 30° ENE 03:49:09 10° N visible
26 Oct ? 05:17:55 10° SSW 05:21:20 23° W 05:24:48 10° NW visible
26 Oct ? 18:41:09 10° NNW 18:43:23 14° WNW 18:45:37 10° W visible
27 Oct ? 03:57:17 10° SE 04:01:23 45° ENE 04:05:30 10° N visible
27 Oct ? 05:34:58 10° SW 05:37:34 16° W 05:40:10 10° NW visible
28 Oct ? 04:13:10 10° SSE 04:17:26 68° ENE 04:21:05 14° N visible
28 Oct ? 05:53:17 10° W 05:53:50 10° W 05:54:22 10° W visible
28 Oct ? 17:35:49 10° N 17:40:04 65° WNW 17:44:19 10° SSW visible
